Year,Month,Day,Hour,Minute,Value (Times are PST for temperature in C)
2007,03,26,00,05,2.40
2007,03,26,00,10,2.40
2007,03,26,00,15,2.30
2007,03,26,00,20,2.30
2007,03,26,00,25,2.30
2007,03,26,00,30,2.30
2007,03,26,00,35,2.30
2007,03,26,00,40,2.20
2007,03,26,00,45,2.20
2007,03,26,00,50,2.20
2007,03,26,00,55,2.20
2007,03,26,01,00,2.20
2007,03,26,01,05,2.20
2007,03,26,01,10,2.20
2007,03,26,01,15,2.30
2007,03,26,01,20,2.30
2007,03,26,01,25,2.20
2007,03,26,01,30,2.20
2007,03,26,01,35,2.20
2007,03,26,01,40,2.10
2007,03,26,01,45,2.00
2007,03,26,01,50,2.00
2007,03,26,01,55,1.90
2007,03,26,02,00,1.90
2007,03,26,02,05,1.80
2007,03,26,02,10,1.80
2007,03,26,02,15,1.80
2007,03,26,02,20,1.80
2007,03,26,02,25,1.80
2007,03,26,02,30,1.90
2007,03,26,02,35,1.80
2007,03,26,02,40,1.70
2007,03,26,02,45,1.70
2007,03,26,02,50,1.70
2007,03,26,02,55,1.60
2007,03,26,03,00,1.60
2007,03,26,03,05,1.70
2007,03,26,03,10,1.70
2007,03,26,03,15,1.80
2007,03,26,03,20,1.80
2007,03,26,03,25,1.80
2007,03,26,03,30,1.80
2007,03,26,03,35,1.80
2007,03,26,03,40,1.90
2007,03,26,03,45,1.90
2007,03,26,03,50,1.90
2007,03,26,03,55,1.90
2007,03,26,04,00,1.90
2007,03,26,04,05,1.90
2007,03,26,04,10,1.90
2007,03,26,04,15,1.90
2007,03,26,04,20,1.80
2007,03,26,04,25,1.80
2007,03,26,04,30,1.70
2007,03,26,04,35,1.70
2007,03,26,04,40,1.70
2007,03,26,04,45,1.80
2007,03,26,04,50,1.80
2007,03,26,04,55,1.80
2007,03,26,05,00,1.70
2007,03,26,05,05,1.70
2007,03,26,05,10,1.60
2007,03,26,05,15,1.60
2007,03,26,05,20,1.70
2007,03,26,05,25,1.60
2007,03,26,05,30,1.60
2007,03,26,05,35,1.50
2007,03,26,05,40,1.50
2007,03,26,05,45,1.50
2007,03,26,05,50,1.40
2007,03,26,05,55,1.30
2007,03,26,06,00,1.30
2007,03,26,06,05,1.30
2007,03,26,06,10,1.20
2007,03,26,06,15,1.20
2007,03,26,06,20,1.10
2007,03,26,06,25,1.20
2007,03,26,06,30,1.20
2007,03,26,06,35,1.20
2007,03,26,06,40,1.10
2007,03,26,06,45,1.00
2007,03,26,06,50,1.00
2007,03,26,06,55,0.90
2007,03,26,07,00,1.00
2007,03,26,07,05,1.00
2007,03,26,07,10,1.00
2007,03,26,07,15,1.10
2007,03,26,07,20,1.10
2007,03,26,07,25,1.20
2007,03,26,07,30,1.20
2007,03,26,07,35,1.30
2007,03,26,07,40,1.20
2007,03,26,07,45,1.20
2007,03,26,07,50,1.20
2007,03,26,07,55,1.20
2007,03,26,08,00,1.20
2007,03,26,08,05,1.20
2007,03,26,08,10,1.20
2007,03,26,08,15,1.20
2007,03,26,08,20,1.20
2007,03,26,08,25,1.20
2007,03,26,08,30,1.20
2007,03,26,08,35,1.20
2007,03,26,08,40,1.30
2007,03,26,08,45,1.30
2007,03,26,08,50,1.30
2007,03,26,08,55,1.20
2007,03,26,09,00,1.20
2007,03,26,09,05,1.30
2007,03,26,09,10,1.30
2007,03,26,09,15,1.30
2007,03,26,09,20,1.40
2007,03,26,09,25,1.60
2007,03,26,09,30,1.60
2007,03,26,09,35,1.50
2007,03,26,09,40,1.40
2007,03,26,09,45,1.50
2007,03,26,09,55,1.50
2007,03,26,10,00,1.50
2007,03,26,10,05,1.80
2007,03,26,10,10,1.90
2007,03,26,10,15,1.90
2007,03,26,10,20,1.90
2007,03,26,10,25,2.10
2007,03,26,10,30,2.20
2007,03,26,10,35,2.30
2007,03,26,10,40,2.60
2007,03,26,10,45,2.90
2007,03,26,10,50,3.20
2007,03,26,10,55,3.50
2007,03,26,11,00,3.80
2007,03,26,11,05,3.90
2007,03,26,11,10,3.90
2007,03,26,11,15,3.80
2007,03,26,11,20,3.50
2007,03,26,11,25,3.40
2007,03,26,11,28,3.60
2007,03,26,11,29,3.70
2007,03,26,11,30,3.80
2007,03,26,11,31,3.80
2007,03,26,11,32,3.80
2007,03,26,11,33,3.80
2007,03,26,11,34,3.90
2007,03,26,11,35,3.90
2007,03,26,11,36,4.00
2007,03,26,11,37,4.00
2007,03,26,11,38,4.00
2007,03,26,11,39,4.10
2007,03,26,11,40,4.00
2007,03,26,11,41,4.00
2007,03,26,11,42,4.00
2007,03,26,11,43,4.00
2007,03,26,11,44,4.00
2007,03,26,11,45,4.10
2007,03,26,11,46,4.10
2007,03,26,11,47,4.20
2007,03,26,11,48,4.20
2007,03,26,11,49,4.30
2007,03,26,11,50,4.50
2007,03,26,11,51,4.60
2007,03,26,11,52,4.60
2007,03,26,11,53,4.70
2007,03,26,11,54,4.80
2007,03,26,11,55,4.90
2007,03,26,11,56,4.90
2007,03,26,11,57,5.10
2007,03,26,11,58,5.10
2007,03,26,11,59,5.10
2007,03,26,12,00,5.10
2007,03,26,12,01,5.10
2007,03,26,12,02,5.10
2007,03,26,12,03,5.10
2007,03,26,12,04,5.10
2007,03,26,12,05,5.10
2007,03,26,12,06,5.10
2007,03,26,12,07,5.10
2007,03,26,12,08,5.10
2007,03,26,12,09,5.10
2007,03,26,12,10,5.10
2007,03,26,12,11,5.10
2007,03,26,12,12,5.10
2007,03,26,12,13,5.10
2007,03,26,12,14,5.10
2007,03,26,12,15,5.20
2007,03,26,12,16,5.30
2007,03,26,12,17,5.30
2007,03,26,12,18,5.30
2007,03,26,12,19,5.40
2007,03,26,12,20,5.50
2007,03,26,12,21,5.60
2007,03,26,12,22,5.70
2007,03,26,12,23,5.70
2007,03,26,12,24,5.80
2007,03,26,12,26,6.00
2007,03,26,12,27,6.00
2007,03,26,12,28,6.10
2007,03,26,12,29,6.10
2007,03,26,12,30,6.10
2007,03,26,12,31,6.20
2007,03,26,12,32,6.20
2007,03,26,12,33,6.20
2007,03,26,12,34,6.20
2007,03,26,12,35,6.30
2007,03,26,12,36,6.30
2007,03,26,12,37,6.40
2007,03,26,12,38,6.40
2007,03,26,12,39,6.40
2007,03,26,12,40,6.60
2007,03,26,12,41,6.70
2007,03,26,12,42,6.80
2007,03,26,12,43,6.80
2007,03,26,12,44,6.90
2007,03,26,12,45,7.00
2007,03,26,12,46,7.10
2007,03,26,12,47,7.20
2007,03,26,12,48,7.30
2007,03,26,12,49,7.30
2007,03,26,12,50,7.30
2007,03,26,12,51,7.30
2007,03,26,12,52,7.30
2007,03,26,12,53,7.30
2007,03,26,12,54,7.30
2007,03,26,12,55,7.30
2007,03,26,12,56,7.30
2007,03,26,12,57,7.30
2007,03,26,12,58,7.30
2007,03,26,12,59,7.30
2007,03,26,13,00,7.30
2007,03,26,13,01,7.30
2007,03,26,13,02,7.40
2007,03,26,13,03,7.50
2007,03,26,13,06,7.80
2007,03,26,13,07,7.80
2007,03,26,13,08,7.90
2007,03,26,13,09,8.10
2007,03,26,13,10,8.20
2007,03,26,13,11,8.20
2007,03,26,13,12,8.30
2007,03,26,13,13,8.40
2007,03,26,13,14,8.50
2007,03,26,13,15,8.60
2007,03,26,13,16,8.60
2007,03,26,13,17,8.60
2007,03,26,13,18,8.60
2007,03,26,13,19,8.60
2007,03,26,13,20,8.70
2007,03,26,13,21,8.70
2007,03,26,13,22,8.80
2007,03,26,13,23,9.00
2007,03,26,13,24,9.10
2007,03,26,13,25,9.20
2007,03,26,13,26,9.30
2007,03,26,13,27,9.40
2007,03,26,13,28,9.60
2007,03,26,13,29,9.70
2007,03,26,13,30,9.70
2007,03,26,13,31,9.80
2007,03,26,13,32,9.90
2007,03,26,13,33,9.90
2007,03,26,13,34,10.10
2007,03,26,13,35,10.10
2007,03,26,13,36,10.10
2007,03,26,13,37,10.20
2007,03,26,13,38,10.30
2007,03,26,13,39,10.40
2007,03,26,13,40,10.40
2007,03,26,13,41,10.60
2007,03,26,13,42,10.60
2007,03,26,13,43,10.60
2007,03,26,13,44,10.60
2007,03,26,13,45,10.60
2007,03,26,13,46,10.60
2007,03,26,13,47,10.60
2007,03,26,13,48,10.60
2007,03,26,13,49,10.40
2007,03,26,13,50,10.40
2007,03,26,13,51,10.40
2007,03,26,13,52,10.40
2007,03,26,13,53,10.40
2007,03,26,13,54,10.40
2007,03,26,13,55,10.60
2007,03,26,13,56,10.60
2007,03,26,13,57,10.60
2007,03,26,13,58,10.60
2007,03,26,13,59,10.70
2007,03,26,14,00,10.80
2007,03,26,14,01,10.90
2007,03,26,14,02,10.90
2007,03,26,14,03,11.10
2007,03,26,14,04,11.10
2007,03,26,14,05,11.10
2007,03,26,14,06,11.20
2007,03,26,14,08,11.30
2007,03,26,14,09,11.40
2007,03,26,14,10,11.40
2007,03,26,14,11,11.40
2007,03,26,14,12,11.40
2007,03,26,14,13,11.40
2007,03,26,14,14,11.60
2007,03,26,14,15,11.60
2007,03,26,14,16,11.60
2007,03,26,14,17,11.70
2007,03,26,14,18,11.70
2007,03,26,14,19,11.70
2007,03,26,14,20,11.70
2007,03,26,14,21,11.70
2007,03,26,14,22,11.70
2007,03,26,14,23,11.80
2007,03,26,14,24,11.80
2007,03,26,14,25,11.80
2007,03,26,14,26,11.90
2007,03,26,14,27,11.90
2007,03,26,14,28,11.80
2007,03,26,14,29,11.80
2007,03,26,14,30,11.90
2007,03,26,14,31,11.90
2007,03,26,14,32,12.00
2007,03,26,14,33,12.10
2007,03,26,14,34,12.20
2007,03,26,14,35,12.20
2007,03,26,14,36,12.30
2007,03,26,14,37,12.30
2007,03,26,14,38,12.30
2007,03,26,14,39,12.30
2007,03,26,14,40,12.30
2007,03,26,14,41,12.30
2007,03,26,14,42,12.30
2007,03,26,14,43,12.20
2007,03,26,14,44,12.10
2007,03,26,14,45,12.10
2007,03,26,14,46,12.00
2007,03,26,14,47,12.00
2007,03,26,14,48,11.90
2007,03,26,14,49,11.90
2007,03,26,14,50,11.90
2007,03,26,14,51,11.90
2007,03,26,14,52,11.90
2007,03,26,14,53,11.90
2007,03,26,14,54,11.90
2007,03,26,14,55,11.90
2007,03,26,14,56,11.90
2007,03,26,14,57,11.90
2007,03,26,14,58,12.00
2007,03,26,14,59,12.00
2007,03,26,15,00,12.20
2007,03,26,15,01,12.20
2007,03,26,15,02,12.30
2007,03,26,15,03,12.30
2007,03,26,15,04,12.40
2007,03,26,15,05,12.50
2007,03,26,15,06,12.60
2007,03,26,15,07,12.70
2007,03,26,15,08,12.70
2007,03,26,15,09,12.70
2007,03,26,15,10,12.80
2007,03,26,15,11,12.70
2007,03,26,15,12,12.70
2007,03,26,15,13,12.70
2007,03,26,15,14,12.70
2007,03,26,15,15,12.80
2007,03,26,15,16,12.80
2007,03,26,15,17,12.80
2007,03,26,15,18,12.80
2007,03,26,15,19,12.80
2007,03,26,15,20,12.80
2007,03,26,15,21,12.70
2007,03,26,15,22,12.70
2007,03,26,15,23,12.70
2007,03,26,15,24,12.60
2007,03,26,15,25,12.60
2007,03,26,15,26,12.60
2007,03,26,15,27,12.50
2007,03,26,15,29,12.40
2007,03,26,15,30,12.40
2007,03,26,15,31,12.30
2007,03,26,15,32,12.30
2007,03,26,15,33,12.20
2007,03,26,15,34,12.10
2007,03,26,15,35,12.00
2007,03,26,15,36,11.90
2007,03,26,15,37,11.80
2007,03,26,15,38,11.80
2007,03,26,15,39,11.80
2007,03,26,15,40,11.80
2007,03,26,15,41,11.90
2007,03,26,15,42,11.90
2007,03,26,15,43,12.00
2007,03,26,15,44,12.10
2007,03,26,15,45,12.10
2007,03,26,15,46,12.20
2007,03,26,15,47,12.20
2007,03,26,15,48,12.20
2007,03,26,15,49,12.20
2007,03,26,15,50,12.30
2007,03,26,15,51,12.20
2007,03,26,15,52,12.10
2007,03,26,15,53,12.10
2007,03,26,15,54,12.10
2007,03,26,15,55,12.10
2007,03,26,15,57,12.00
2007,03,26,15,58,12.00
2007,03,26,15,59,12.00
2007,03,26,16,00,12.10
2007,03,26,16,01,12.10
2007,03,26,16,02,12.10
2007,03,26,16,03,12.00
2007,03,26,16,04,11.90
2007,03,26,16,05,11.90
2007,03,26,16,06,11.80
2007,03,26,16,07,11.80
2007,03,26,16,08,11.80
2007,03,26,16,09,11.80
2007,03,26,16,10,11.80
2007,03,26,16,11,11.80
2007,03,26,16,12,11.70
2007,03,26,16,13,11.60
2007,03,26,16,14,11.60
2007,03,26,16,15,11.60
2007,03,26,16,16,11.60
2007,03,26,16,17,11.40
2007,03,26,16,18,11.40
2007,03,26,16,19,11.40
2007,03,26,16,20,11.40
2007,03,26,16,21,11.30
2007,03,26,16,22,11.20
2007,03,26,16,23,11.10
2007,03,26,16,24,11.10
2007,03,26,16,25,11.10
2007,03,26,16,26,10.90
2007,03,26,16,27,10.90
2007,03,26,16,28,10.90
2007,03,26,16,29,10.80
2007,03,26,16,30,10.70
2007,03,26,16,31,10.60
2007,03,26,16,32,10.60
2007,03,26,16,33,10.40
2007,03,26,16,34,10.40
2007,03,26,16,35,10.40
2007,03,26,16,36,10.40
2007,03,26,16,37,10.30
2007,03,26,16,38,10.30
2007,03,26,16,39,10.40
2007,03,26,16,40,10.40
2007,03,26,16,41,10.40
2007,03,26,16,42,10.40
2007,03,26,16,43,10.40
2007,03,26,16,44,10.60
2007,03,26,16,45,10.60
2007,03,26,16,46,10.60
2007,03,26,16,47,10.60
2007,03,26,16,48,10.40
2007,03,26,16,49,10.40
2007,03,26,16,50,10.40
2007,03,26,16,51,10.40
2007,03,26,16,52,10.40
2007,03,26,16,53,10.30
2007,03,26,16,54,10.30
2007,03,26,16,55,10.20
2007,03,26,16,56,10.20
2007,03,26,16,57,10.20
2007,03,26,16,58,10.20
2007,03,26,16,59,10.20
2007,03,26,17,00,10.20
2007,03,26,17,01,10.20
2007,03,26,17,02,10.10
2007,03,26,17,03,10.10
2007,03,26,17,04,10.10
2007,03,26,17,05,10.10
2007,03,26,17,06,10.10
2007,03,26,17,07,10.10
2007,03,26,17,08,10.10
2007,03,26,17,09,10.10
2007,03,26,17,10,10.10
2007,03,26,17,11,10.10
2007,03,26,17,12,10.10
2007,03,26,17,13,10.10
2007,03,26,17,14,10.20
2007,03,26,17,15,10.20
2007,03,26,17,16,10.30
2007,03,26,17,17,10.30
2007,03,26,17,18,10.30
2007,03,26,17,19,10.40
2007,03,26,17,20,10.40
2007,03,26,17,21,10.40
2007,03,26,17,22,10.40
2007,03,26,17,23,10.40
2007,03,26,17,24,10.40
2007,03,26,17,25,10.40
2007,03,26,17,26,10.30
2007,03,26,17,27,10.30
2007,03,26,17,28,10.30
2007,03,26,17,29,10.20
2007,03,26,17,30,10.20
2007,03,26,17,31,10.20
2007,03,26,17,32,10.20
2007,03,26,17,33,10.20
2007,03,26,17,34,10.10
2007,03,26,17,35,10.10
2007,03,26,17,36,10.10
2007,03,26,17,37,10.10
2007,03,26,17,38,10.10
2007,03,26,17,39,10.10
2007,03,26,17,40,10.20
2007,03,26,17,41,10.20
2007,03,26,17,42,10.20
2007,03,26,17,43,10.20
2007,03,26,17,44,10.10
2007,03,26,17,45,10.10
2007,03,26,17,46,10.10
2007,03,26,17,47,10.10
2007,03,26,17,48,10.10
2007,03,26,17,49,10.10
2007,03,26,17,50,10.10
2007,03,26,17,51,10.10
2007,03,26,17,52,10.10
2007,03,26,17,53,10.10
2007,03,26,17,54,10.10
2007,03,26,17,55,10.10
2007,03,26,17,56,10.10
2007,03,26,17,57,10.20
2007,03,26,17,58,10.20
2007,03,26,17,59,10.20
2007,03,26,18,00,10.20
2007,03,26,18,01,10.10
2007,03,26,18,02,10.20
2007,03,26,18,03,10.20
2007,03,26,18,04,10.20
2007,03,26,18,05,10.20
2007,03,26,18,06,10.20
2007,03,26,18,07,10.20
2007,03,26,18,08,10.30
2007,03,26,18,09,10.30
2007,03,26,18,10,10.40
2007,03,26,18,11,10.40
2007,03,26,18,12,10.40
2007,03,26,18,13,10.60
2007,03,26,18,14,10.60
2007,03,26,18,15,10.60
2007,03,26,18,16,10.60
2007,03,26,18,17,10.60
2007,03,26,18,18,10.60
2007,03,26,18,19,10.60
2007,03,26,18,20,10.60
2007,03,26,18,21,10.60
2007,03,26,18,22,10.60
2007,03,26,18,23,10.60
2007,03,26,18,24,10.60
2007,03,26,18,25,10.60
2007,03,26,18,26,10.60
2007,03,26,18,27,10.60
2007,03,26,18,28,10.60
2007,03,26,18,29,10.60
2007,03,26,18,30,10.60
2007,03,26,18,31,10.60
2007,03,26,18,32,10.40
2007,03,26,18,33,10.40
2007,03,26,18,34,10.60
2007,03,26,18,35,10.60
2007,03,26,18,36,10.60
2007,03,26,18,37,10.60
2007,03,26,18,38,10.60
2007,03,26,18,39,10.40
2007,03,26,18,40,10.40
2007,03,26,18,41,10.40
2007,03,26,18,42,10.40
2007,03,26,18,43,10.40
2007,03,26,18,44,10.40
2007,03,26,18,45,10.40
2007,03,26,18,46,10.30
2007,03,26,18,47,10.30
2007,03,26,18,48,10.30
2007,03,26,18,49,10.30
2007,03,26,18,50,10.20
2007,03,26,18,51,10.20
2007,03,26,18,52,10.20
2007,03,26,18,53,10.20
2007,03,26,18,54,10.10
2007,03,26,18,55,10.10
2007,03,26,18,56,10.10
2007,03,26,18,57,9.90
2007,03,26,18,58,9.90
2007,03,26,18,59,9.90
2007,03,26,19,00,9.90
2007,03,26,19,01,9.90
2007,03,26,19,02,9.90
2007,03,26,19,03,9.80
2007,03,26,19,04,9.80
2007,03,26,19,05,9.80
2007,03,26,19,06,9.80
2007,03,26,19,07,9.80
2007,03,26,19,08,9.80
2007,03,26,19,09,9.80
2007,03,26,19,10,9.70
2007,03,26,19,11,9.70
2007,03,26,19,12,9.70
2007,03,26,19,13,9.70
2007,03,26,19,14,9.70
2007,03,26,19,15,9.70
2007,03,26,19,16,9.70
2007,03,26,19,17,9.70
2007,03,26,19,18,9.70
2007,03,26,19,19,9.70
2007,03,26,19,20,9.60
2007,03,26,19,21,9.60
2007,03,26,19,22,9.60
2007,03,26,19,23,9.60
2007,03,26,19,24,9.60
2007,03,26,19,25,9.60
2007,03,26,19,26,9.60
2007,03,26,19,27,9.50
2007,03,26,19,28,9.50
2007,03,26,19,29,9.40
2007,03,26,19,30,9.40
2007,03,26,19,31,9.30
2007,03,26,19,32,9.20
2007,03,26,19,33,9.20
2007,03,26,19,34,9.20
2007,03,26,19,35,9.10
2007,03,26,19,36,9.00
2007,03,26,19,37,8.90
2007,03,26,19,38,8.80
2007,03,26,19,39,8.70
2007,03,26,19,40,8.70
2007,03,26,19,41,8.70
2007,03,26,19,42,8.70
2007,03,26,19,43,8.60
2007,03,26,19,44,8.60
2007,03,26,19,45,8.50
2007,03,26,19,46,8.50
2007,03,26,19,47,8.50
2007,03,26,19,48,8.40
2007,03,26,19,49,8.40
2007,03,26,19,50,8.40
2007,03,26,19,51,8.30
2007,03,26,19,52,8.30
2007,03,26,19,53,8.30
2007,03,26,19,54,8.20
2007,03,26,19,55,8.20
2007,03,26,19,56,8.20
2007,03,26,19,57,8.20
2007,03,26,19,58,8.20
2007,03,26,19,59,8.20
2007,03,26,20,00,8.10
2007,03,26,20,01,8.10
2007,03,26,20,02,8.10
2007,03,26,20,03,8.00
2007,03,26,20,04,8.00
2007,03,26,20,05,8.00
2007,03,26,20,06,8.00
2007,03,26,20,07,7.90
2007,03,26,20,08,7.90
2007,03,26,20,09,7.90
2007,03,26,20,10,7.90
2007,03,26,20,11,7.80
2007,03,26,20,12,7.80
2007,03,26,20,13,7.80
2007,03,26,20,14,7.80
2007,03,26,20,15,7.80
2007,03,26,20,16,7.80
2007,03,26,20,17,7.70
2007,03,26,20,18,7.70
2007,03,26,20,19,7.70
2007,03,26,20,20,7.70
2007,03,26,20,21,7.60
2007,03,26,20,22,7.60
2007,03,26,20,23,7.60
2007,03,26,20,24,7.60
2007,03,26,20,25,7.50
2007,03,26,20,26,7.50
2007,03,26,20,27,7.50
2007,03,26,20,28,7.40
2007,03,26,20,29,7.40
2007,03,26,20,30,7.40
2007,03,26,20,31,7.30
2007,03,26,20,32,7.30
2007,03,26,20,33,7.30
2007,03,26,20,34,7.30
2007,03,26,20,35,7.30
2007,03,26,20,36,7.30
2007,03,26,20,37,7.20
2007,03,26,20,38,7.20
2007,03,26,20,39,7.20
2007,03,26,20,40,7.20
2007,03,26,20,41,7.10
2007,03,26,20,42,7.10
2007,03,26,20,43,7.10
2007,03,26,20,44,7.00
2007,03,26,20,45,7.00
2007,03,26,20,46,7.00
2007,03,26,20,47,7.00
2007,03,26,20,48,6.90
2007,03,26,20,49,6.90
2007,03,26,20,50,6.90
2007,03,26,20,51,6.90
2007,03,26,20,52,6.80
2007,03,26,20,53,6.80
2007,03,26,20,54,6.80
2007,03,26,20,55,6.80
2007,03,26,20,56,6.80
2007,03,26,20,57,6.80
2007,03,26,20,58,6.70
2007,03,26,20,59,6.70
2007,03,26,21,00,6.60
2007,03,26,21,01,6.60
2007,03,26,21,02,6.60
2007,03,26,21,03,6.60
2007,03,26,21,04,6.40
2007,03,26,21,05,6.40
2007,03,26,21,06,6.40
2007,03,26,21,07,6.40
2007,03,26,21,08,6.40
2007,03,26,21,09,6.30
2007,03,26,21,10,6.30
2007,03,26,21,11,6.30
2007,03,26,21,12,6.20
2007,03,26,21,13,6.20
2007,03,26,21,14,6.20
2007,03,26,21,15,6.20
2007,03,26,21,16,6.20
2007,03,26,21,17,6.20
2007,03,26,21,18,6.10
2007,03,26,21,19,6.10
2007,03,26,21,20,6.10
2007,03,26,21,21,6.00
2007,03,26,21,22,6.00
2007,03,26,21,23,6.00
2007,03,26,21,24,6.00
2007,03,26,21,25,5.90
2007,03,26,21,26,5.90
2007,03,26,21,27,5.90
2007,03,26,21,28,5.90
2007,03,26,21,29,5.90
2007,03,26,21,30,5.80
2007,03,26,21,31,5.80
2007,03,26,21,32,5.80
2007,03,26,21,33,5.80
2007,03,26,21,34,5.70
2007,03,26,21,35,5.70
2007,03,26,21,36,5.70
2007,03,26,21,37,5.70
2007,03,26,21,38,5.70
2007,03,26,21,39,5.70
2007,03,26,21,40,5.70
2007,03,26,21,41,5.70
2007,03,26,21,42,5.70
2007,03,26,21,43,5.60
2007,03,26,21,44,5.60
2007,03,26,21,45,5.60
2007,03,26,21,46,5.60
2007,03,26,21,47,5.50
2007,03,26,21,48,5.50
2007,03,26,21,49,5.50
2007,03,26,21,50,5.50
2007,03,26,21,51,5.40
2007,03,26,21,52,5.40
2007,03,26,21,53,5.40
2007,03,26,21,54,5.40
2007,03,26,21,55,5.40
2007,03,26,21,56,5.30
2007,03,26,21,57,5.30
2007,03,26,21,58,5.30
2007,03,26,21,59,5.30
2007,03,26,22,00,5.30
2007,03,26,22,01,5.30
2007,03,26,22,02,5.30
2007,03,26,22,03,5.30
2007,03,26,22,04,5.30
2007,03,26,22,05,5.30
2007,03,26,22,06,5.20
2007,03,26,22,07,5.20
2007,03,26,22,08,5.20
2007,03,26,22,09,5.20
2007,03,26,22,10,5.20
2007,03,26,22,11,5.20
2007,03,26,22,12,5.10
2007,03,26,22,13,5.10
2007,03,26,22,14,5.10
2007,03,26,22,15,5.10
2007,03,26,22,16,5.10
2007,03,26,22,17,5.10
2007,03,26,22,18,5.10
2007,03,26,22,19,5.10
2007,03,26,22,20,5.10
2007,03,26,22,21,5.10
2007,03,26,22,22,5.10
2007,03,26,22,23,4.90
2007,03,26,22,24,4.90
2007,03,26,22,25,4.90
2007,03,26,22,26,4.90
2007,03,26,22,27,4.90
2007,03,26,22,28,4.90
2007,03,26,22,29,4.90
2007,03,26,22,30,4.90
2007,03,26,22,32,4.90
2007,03,26,22,33,4.90
2007,03,26,22,34,4.80
2007,03,26,22,35,4.80
2007,03,26,22,36,4.80
2007,03,26,22,37,4.80
2007,03,26,22,38,4.70
2007,03,26,22,39,4.70
2007,03,26,22,40,4.70
2007,03,26,22,41,4.70
2007,03,26,22,42,4.70
2007,03,26,22,43,4.60
2007,03,26,22,44,4.60
2007,03,26,22,45,4.60
2007,03,26,22,46,4.60
2007,03,26,22,47,4.60
2007,03,26,22,48,4.60
2007,03,26,22,49,4.60
2007,03,26,22,50,4.60
2007,03,26,22,51,4.60
2007,03,26,22,52,4.60
2007,03,26,22,53,4.60
2007,03,26,22,54,4.50
2007,03,26,22,55,4.50
2007,03,26,22,56,4.50
2007,03,26,22,57,4.50
2007,03,26,22,58,4.50
2007,03,26,22,59,4.50
2007,03,26,23,00,4.40
2007,03,26,23,01,4.40
2007,03,26,23,02,4.40
2007,03,26,23,03,4.40
2007,03,26,23,04,4.40
2007,03,26,23,05,4.30
2007,03,26,23,06,4.30
2007,03,26,23,07,4.30
2007,03,26,23,08,4.30
2007,03,26,23,09,4.30
2007,03,26,23,10,4.30
2007,03,26,23,11,4.30
2007,03,26,23,12,4.30
2007,03,26,23,13,4.20
2007,03,26,23,14,4.20
2007,03,26,23,15,4.20
2007,03,26,23,16,4.20
2007,03,26,23,17,4.20
2007,03,26,23,18,4.20
2007,03,26,23,19,4.20
2007,03,26,23,20,4.20
2007,03,26,23,21,4.20
2007,03,26,23,22,4.20
2007,03,26,23,23,4.20
2007,03,26,23,24,4.20
2007,03,26,23,25,4.20
2007,03,26,23,26,4.10
2007,03,26,23,27,4.10
2007,03,26,23,28,4.10
2007,03,26,23,29,4.10
2007,03,26,23,30,4.10
2007,03,26,23,31,4.10
2007,03,26,23,32,4.10
2007,03,26,23,33,4.00
2007,03,26,23,34,4.00
2007,03,26,23,35,4.00
2007,03,26,23,36,4.00
2007,03,26,23,37,4.00
2007,03,26,23,38,3.90
2007,03,26,23,39,3.90
2007,03,26,23,40,3.90
2007,03,26,23,41,3.90
2007,03,26,23,42,3.80
2007,03,26,23,43,3.80
2007,03,26,23,44,3.80
2007,03,26,23,45,3.80
2007,03,26,23,46,3.80
2007,03,26,23,47,3.80
2007,03,26,23,48,3.80
2007,03,26,23,49,3.80
2007,03,26,23,50,3.80
2007,03,26,23,51,3.70
2007,03,26,23,52,3.70
2007,03,26,23,53,3.70
2007,03,26,23,54,3.70
2007,03,26,23,55,3.60
2007,03,26,23,56,3.60
2007,03,26,23,57,3.60
2007,03,26,23,58,3.60
2007,03,26,23,59,3.50
